{"data":{"norad_id":67302,"epoch":"2026-05-24T22:57:39.742272Z","epoch_age_seconds":72599,"freshness":"FRESH","line1":"1 67302U 25315A   26144.95670998 -.00000076  00000+0  00000+0 0  9996","line2":"2 67302   3.3407  95.6641 0002921 332.8446 232.3003  1.00275665  1389","mean_motion":1.00275665,"eccentricity":0.0002921,"inclination_deg":3.3407,"raan_deg":95.6641,"arg_perigee_deg":332.8446,"mean_anomaly_deg":232.3003,"bstar":0,"rev_number":138,"period_min":1436.0413366493,"perigee_km":35773.191290918,"apogee_km":35797.823291913,"semimajor_km":42163.644291415,"source":"CELESTRAK","updated_at":"2026-05-25T13:38:14.189414Z"}}